Location: DARK SKY Beskydy - Park tmavé oblohy, www.darkskybeskydy.cz
(49.4926°N, 18.5016°E)
Time: 03:28:41
(UTC+02:00)

A-11 Canister half - Pass Details

Date: 23 February 2024
Orbit: 1513 x 1686 km, 47.2° (Epoch: 24 April)

Event Time Altitude Azimuth Distance (km) Brightness Sun altitude
Rises 06:20:35 0° 278° (W) 4,911 - -4.2°
Exits shadow 06:22:02 - 278° (W) 4,454 10.7 -4.0°
Reaches altitude 10° 06:23:47 10° 277° (W) 3,905 10.5 -3.7°
Maximum altitude 06:33:41 71° 196° (SSW) 1,691 9.3 -2.1°
Drops below altitude 10° 06:43:12 10° 115° (ESE) 3,765 13.0 -0.6°
Sets 06:46:14 0° 113° (ESE) 4,726 14.2 -0.1°
